Location: Paderno d�Adda
(45.6667°N, 9.4333°E)
Time: 01:11:42
(UTC+00:00)

NOSS 3-2 (A) - Pass Details

Date: 19 September 2020
Orbit: 795 x 1413 km, 63.4° (Epoch: 25 October)

Event Time Altitude Azimuth Distance (km) Brightness Sun altitude
Rises 19:15:29 0° 321° (NW) 3,961 7.8 -19.6°
Reaches altitude 10° 19:18:02 10° 321° (NW) 3,082 7.0 -20.0°
Maximum altitude 19:25:36 87° 233° (SW) 1,294 4.0 -21.2°
Enters shadow 19:30:20 30° 147° (SSE) 2,230 4.9 -21.9°
